DW0707 Weather Reports


time (UTC)temp
F
wind
direction
speed
knots
gust
knots
rain 1hr
in
rain 24hr
in
rain mn
in
humidity
%
barometer
mb
20260506213113 54 293 5.2 9.6 0.00 0.00 0.00 84 1020.7
20260506212606 54 246 4.3 9.6 0.00 0.00 0.00 84 1020.6
20260506212101 55 253 4.3 10.4 0.00 0.00 0.00 84 1020.6
20260506211554 55 246 5.2 10.4 0.00 0.00 0.00 84 1020.7
20260506210542 55 238 6.1 11.3 0.00 0.00 0.00 83 1020.6
20260506210037 55 253 3.5 10.4 0.00 0.00 0.00 84 1020.6
20260506205024 54 263 6.1 11.3 0.00 0.00 0.00 83 1020.6
20260506204519 54 232 6.1 11.3 0.00 0.00 0.00 83 1020.6
20260506202455 55 223 5.2 10.4 0.00 0.00 0.00 83 1020.5
20260506201948 55 310 5.2 10.4 0.00 0.00 0.00 83 1020.5
20260506201442 55 233 4.3 9.6 0.00 0.00 0.00 84 1020.5
20260506200937 55 284 4.3 9.6 0.00 0.00 0.00 84 1020.4
20260506200431 55 279 4.3 9.6 0.00 0.00 0.00 84 1020.4
20260506195924 54 231 4.3 9.6 0.00 0.00 0.00 84 1020.4
20260506195419 55 222 3.5 7.8 0.00 0.00 0.00 85 1020.4
20260506194913 55 240 3.5 7.8 0.00 0.00 0.00 86 1020.4
20260506194406 54 269 3.5 7.8 0.00 0.00 0.00 86 1020.4
20260506193901 54 255 3.5 8.7 0.00 0.00 0.00 86 1020.3
20260506193354 54 250 5.2 10.4 0.00 0.00 0.00 86 1020.3
20260506192343 53 225 4.3 9.6 0.00 0.00 0.00 87 1020.3
20260506191836 53 275 3.5 8.7 0.00 0.00 0.00 87 1020.2
20260506191331 53 269 4.3 8.7 0.00 0.00 0.00 88 1020.2
20260506190824 53 246 5.2 9.6 0.00 0.00 0.00 87 1020.2
20260506190319 53 205 4.3 9.6 0.00 0.00 0.00 88 1020.1
20260506185813 53 232 3.5 7.8 0.00 0.00 0.00 88 1020.1
20260506184800 53 256 3.5 7.8 0.00 0.00 0.00 88 1020.0
20260506184255 53 240 3.5 7.8 0.00 0.00 0.00 88 1020.0
20260506183748 53 253 3.5 7.0 0.00 0.00 0.00 88 1020.0
20260506183243 53 219 2.6 6.1 0.00 0.00 0.00 88 1020.0
20260506182736 53 242 2.6 6.1 0.00 0.00 0.00 87 1020.0
20260506182230 53 215 2.6 6.1 0.00 0.00 0.00 87 1019.8
20260506181725 53 257 2.6 6.1 0.00 0.00 0.00 87 1019.8
20260506181219 53 248 2.6 7.0 0.00 0.00 0.00 87 1019.8
20260506180712 53 253 2.6 7.8 0.00 0.00 0.00 87 1019.7
20260506180207 53 253 2.6 7.0 0.00 0.00 0.00 87 1019.8
20260506175701 53 252 1.7 7.0 0.00 0.00 0.00 87 1019.8
20260506175155 53 223 2.6 7.0 0.00 0.00 0.00 87 1019.9
20260506174649 53 244 3.5 7.8 0.00 0.00 0.00 87 1019.8
20260506174142 53 255 3.5 7.0 0.00 0.00 0.00 87 1019.8
20260506173637 53 273 3.5 7.0 0.00 0.00 0.00 86 1019.8
20260506172625 53 257 3.5 7.8 0.00 0.00 0.00 86 1019.9
20260506172118 53 256 2.6 7.0 0.00 0.00 0.00 86 1019.8
20260506171617 53 268 3.5 8.7 0.00 0.00 0.00 85 1019.7
20260506171117 53 271 2.6 8.7 0.00 0.00 0.00 85 1019.7
20260506170617 53 298 4.3 8.7 0.00 0.00 0.00 85 1019.6
20260506170122 53 257 4.3 8.7 0.00 0.00 0.00 84 1019.5
20260506165617 53 235 2.6 7.8 0.00 0.00 0.00 84 1019.5
20260506165117 53 240 2.6 7.0 0.00 0.00 0.00 83 1019.5
20260506164617 53 250 2.6 7.0 0.00 0.00 0.00 83 1019.5
20260506164117 53 254 2.6 7.0 0.00 0.00 0.00 83 1019.4
20260506163616 53 272 2.6 7.8 0.00 0.00 0.00 83 1019.3
20260506163116 53 246 1.7 7.8 0.00 0.00 0.00 83 1019.3
20260506162115 53 246 1.7 6.1 0.00 0.00 0.00 83 1019.4
20260506161615 53 244 0.9 3.5 0.00 0.00 0.00 83 1019.3
20260506161113 53 247 1.7 6.1 0.00 0.00 0.00 82 1019.3
20260506160116 53 206 1.7 4.3 0.00 0.00 0.00 82 1019.3
20260506155616 53 250 1.7 4.3 0.00 0.00 0.00 82 1019.3
20260506153610 53 240 2.6 8.7 0.00 0.00 0.00 81 1019.2
20260506152610 53 271 1.7 6.1 0.00 0.00 0.00 81 1019.2
20260506152108 53 233 1.7 5.2 0.00 0.00 0.00 81 1019.1
20260506151609 53 270 1.7 5.2 0.00 0.00 0.00 81 1019.1
20260506151109 53 273 2.6 4.3 0.00 0.00 0.00 81 1019.0
20260506150608 53 230 1.7 4.3 0.00 0.00 0.00 81 1019.0
20260506145609 53 15 1.7 6.1 0.00 0.00 0.00 81 1018.9
20260506145108 53 261 1.7 6.1 0.00 0.00 0.00 81 1018.9
20260506144608 53 246 0.9 6.1 0.00 0.00 0.00 81 1018.7
20260506144108 53 269 0.0 6.1 0.00 0.00 0.00 81 1018.7
20260506143608 53 269 0.9 6.1 0.00 0.00 0.00 81 1018.6
20260506143108 53 269 0.9 7.8 0.00 0.00 0.00 81 1018.6
20260506142605 53 246 0.9 7.8 0.00 0.00 0.00 81 1018.5
20260506141554 53 245 0.9 3.5 0.00 0.00 0.00 81 1018.4
20260506141048 53 245 0.9 3.5 0.00 0.00 0.00 81 1018.4
20260506140036 53 208 0.9 5.2 0.00 0.00 0.00 81 1018.4
20260506135529 53 249 1.7 5.2 0.00 0.00 0.00 81 1018.4
20260506135028 53 270 1.7 6.1 0.00 0.00 0.00 81 1018.4
20260506134529 53 259 1.7 6.1 0.00 0.00 0.00 81 1018.2
20260506134026 53 250 2.6 6.1 0.00 0.00 0.00 81 1018.2
20260506133527 53 243 1.7 6.1 0.00 0.00 0.00 81 1018.2
20260506133025 53 267 0.9 6.1 0.00 0.00 0.00 81 1017.9
20260506132525 53 266 0.0 3.5 0.00 0.00 0.00 81 1017.8
20260506131530 53 247 0.0 2.6 0.00 0.00 0.00 81 1018.0
20260506125516 53 254 0.0 2.6 0.00 0.00 0.00 81 1017.7
20260506125015 53 254 0.9 6.1 0.00 0.00 0.00 81 1017.7
20260506124510 53 254 1.7 6.1 0.00 0.00 0.00 81 1017.9
20260506123009 53 240 0.9 2.6 0.00 0.00 0.00 81 1017.9
20260506122509 53 240 0.9 2.6 0.00 0.00 0.00 81 1017.9
20260506122007 53 281 0.9 2.6 0.00 0.00 0.00 81 1017.7
20260506120458 53 246 2.6 7.0 0.00 0.00 0.00 81 1017.8
20260506115446 53 268 2.6 6.1 0.00 0.00 0.00 81 1017.8
20260506114939 53 230 2.6 6.1 0.00 0.00 0.00 81 1017.6
20260506114433 53 259 2.6 6.1 0.00 0.00 0.00 81 1017.5
20260506113927 53 263 2.6 6.1 0.00 0.00 0.00 81 1017.4
20260506113422 53 273 1.7 6.1 0.00 0.00 0.00 81 1017.5
20260506112915 53 231 1.7 6.1 0.00 0.00 0.00 81 1017.5
20260506112409 53 245 2.6 6.1 0.00 0.00 0.00 81 1017.6
20260506111903 53 291 1.7 5.2 0.00 0.00 0.00 81 1017.6
20260506111357 53 289 1.7 6.1 0.00 0.00 0.00 81 1017.6
20260506110852 53 269 2.6 6.1 0.00 0.00 0.00 81 1017.6
20260506110345 53 273 1.7 5.2 0.00 0.00 0.00 81 1017.5
20260506105840 53 247 1.7 5.2 0.00 0.00 0.00 82 1017.5
20260506105333 53 290 1.7 6.1 0.00 0.00 0.00 82 1017.5
20260506104827 53 299 2.6 6.1 0.00 0.00 0.00 82 1017.6
20260506104321 53 281 2.6 6.1 0.00 0.00 0.00 82 1017.4
20260506103309 53 256 1.7 5.2 0.00 0.00 0.00 82 1017.3
20260506102803 53 270 1.7 5.2 0.00 0.00 0.00 82 1017.3
20260506102257 53 248 0.9 3.5 0.00 0.00 0.00 82 1017.3
20260506101751 53 248 1.7 3.5 0.00 0.00 0.00 82 1017.2
20260506101246 53 248 1.7 4.3 0.00 0.00 0.00 82 1017.2
20260506100233 53 261 1.7 3.5 0.00 0.00 0.00 83 1017.1
20260506095727 53 284 1.7 3.5 0.00 0.00 0.00 83 1017.0
20260506095221 53 291 0.9 2.6 0.00 0.00 0.00 83 1017.1
20260506094716 53 291 1.7 3.5 0.00 0.00 0.00 83 1017.1
20260506093704 53 243 2.6 7.0 0.00 0.00 0.00 83 1017.2
20260506092652 53 269 2.6 7.0 0.00 0.00 0.00 83 1017.1
20260506091640 53 286 2.6 7.0 0.00 0.00 0.00 83 1017.0
20260506091133 53 253 2.6 5.2 0.00 0.00 0.00 83 1017.0
20260506090627 53 250 2.6 5.2 0.00 0.00 0.00 83 1017.0
20260506085616 54 244 1.7 4.3 0.00 0.00 0.00 83 1016.9
20260506085109 54 229 1.7 7.0 0.00 0.00 0.00 83 1016.9
20260506082559 54 250 2.6 7.8 0.00 0.00 0.00 82 1016.8
20260506082059 54 237 1.7 5.2 0.00 0.00 0.00 82 1016.7
20260506081059 54 245 2.6 7.0 0.00 0.00 0.00 82 1016.8
20260506073054 54 242 0.9 5.2 0.00 0.00 0.00 82 1016.3
20260506072550 54 218 0.9 5.2 0.00 0.00 0.00 81 1016.3
20260506071048 54 243 1.7 6.1 0.00 0.00 0.00 81 1016.3
20260506070548 54 273 1.7 6.1 0.00 0.00 0.00 81 1016.2
20260506050525 55 250 2.6 7.0 0.00 0.00 0.00 80 1016.1
20260506045025 55 237 2.6 7.0 0.00 0.00 0.00 80 1016.0
20260506044524 55 265 2.6 7.0 0.00 0.00 0.00 80 1016.1
20260506044025 55 270 2.6 5.2 0.00 0.00 0.00 80 1016.0
20260506043524 55 279 1.7 4.3 0.00 0.00 0.00 80 1016.0
20260506042524 55 259 3.5 7.8 0.00 0.00 0.00 80 1015.9
20260506041525 55 256 1.7 4.3 0.00 0.00 0.00 80 1015.7
20260506041025 55 249 1.7 4.3 0.00 0.00 0.00 80 1015.6
20260506040525 55 255 0.9 2.6 0.00 0.00 0.00 80 1015.5
20260506040024 55 245 0.9 8.7 0.00 0.00 0.00 80 1015.5
20260506035524 55 245 2.6 8.7 0.00 0.00 0.00 80 1015.4
20260506035022 55 244 3.5 8.7 0.00 0.00 0.00 80 1015.4
20260506034522 55 257 2.6 8.7 0.00 0.00 0.00 80 1015.4
20260506034016 55 247 1.7 7.0 0.00 0.00 0.00 80 1015.2
20260506033513 55 292 1.7 7.0 0.00 0.00 0.00 80 1015.1
20260506033012 55 246 2.6 7.0 0.00 0.00 0.00 80 1015.2
20260506032518 55 233 2.6 7.0 0.00 0.00 0.00 79 1015.2
20260506032018 55 268 1.7 6.1 0.00 0.00 0.00 79 1015.2
20260506031512 55 275 2.6 6.1 0.00 0.00 0.00 79 1015.2
20260506031013 56 267 2.6 6.1 0.00 0.00 0.00 79 1015.2
20260506030512 56 222 2.6 7.0 0.00 0.00 0.00 79 1015.2
20260506030012 56 267 2.6 7.0 0.00 0.00 0.00 78 1015.3
20260506025512 56 245 2.6 7.0 0.00 0.00 0.00 78 1015.3
20260506025012 56 255 2.6 7.0 0.00 0.00 0.00 78 1015.2
20260506024006 56 299 1.7 7.0 0.00 0.00 0.00 79 1015.0
20260506023506 56 287 1.7 7.0 0.00 0.00 0.00 79 1015.1
20260506023007 56 267 1.7 7.0 0.00 0.00 0.00 79 1015.1
20260506022507 56 240 1.7 3.5 0.00 0.00 0.00 78 1015.0
20260506022010 56 238 1.7 3.5 0.00 0.00 0.00 78 1015.0
20260506021508 56 271 1.7 7.8 0.00 0.00 0.00 79 1015.0
20260506020502 56 246 2.6 6.1 0.00 0.00 0.00 79 1015.1
20260506015955 56 240 1.7 6.1 0.00 0.00 0.00 79 1015.2
20260506014943 57 245 2.6 7.0 0.00 0.00 0.00 78 1015.1
20260506014438 57 246 2.6 7.0 0.00 0.00 0.00 78 1015.0
20260506013931 57 263 3.5 7.0 0.00 0.00 0.00 79 1015.1
20260506013425 57 230 2.6 7.0 0.00 0.00 0.00 79 1015.1
20260506012414 57 251 1.7 7.8 0.00 0.00 0.00 79 1015.1
20260506011907 57 257 1.7 6.1 0.00 0.00 0.00 79 1015.1
20260506010855 57 269 2.6 8.7 0.00 0.00 0.00 79 1015.2
20260506010350 57 294 2.6 8.7 0.00 0.00 0.00 79 1015.1
20260506005844 58 283 2.6 6.1 0.00 0.00 0.00 79 1015.1
20260506005337 58 273 1.7 6.1 0.00 0.00 0.00 79 1015.1
20260506004831 58 237 2.6 7.0 0.00 0.00 0.00 79 1015.1
20260506003819 57 279 2.6 7.0 0.00 0.00 0.00 79 1015.1
20260506003313 57 273 3.5 7.0 0.00 0.00 0.00 78 1015.2
20260506002302 58 227 2.6 6.1 0.00 0.00 0.00 79 1015.1
20260506001755 58 236 2.6 6.1 0.00 0.00 0.00 79 1015.2
20260506000743 58 246 2.6 7.0 0.00 0.00 0.00 78 1015.2
20260506000240 58 229 3.5 7.0 0.00 0.00 0.00 78 1015.3
20260505235731 58 232 3.5 7.8 0.00 0.00 0.00 77 1015.2
20260505235225 58 232 2.6 7.8 0.00 0.00 0.00 78 1015.2
20260505234719 58 243 3.5 7.8 0.00 0.00 0.00 78 1015.2
20260505234213 58 246 3.5 7.8 0.00 0.00 0.00 78 1015.3
20260505233707 58 292 3.5 7.8 0.00 0.00 0.00 78 1015.4
20260505233201 58 260 2.6 6.1 0.00 0.00 0.00 78 1015.4
20260505232655 58 222 2.6 6.1 0.00 0.00 0.00 79 1015.4
20260505231644 58 242 5.2 9.6 0.00 0.00 0.00 77 1015.5
20260505231138 58 283 5.2 8.7 0.00 0.00 0.00 78 1015.5
20260505230631 58 246 4.3 7.8 0.00 0.00 0.00 77 1015.5
20260505225625 58 236 2.6 7.0 0.00 0.00 0.00 78 1015.6
20260505225113 58 287 3.5 7.0 0.00 0.00 0.00 78 1015.6
20260505224607 58 269 3.5 8.7 0.00 0.00 0.00 77 1015.6
20260505224101 58 294 4.3 8.7 0.00 0.00 0.00 77 1015.6
20260505223555 58 262 4.3 8.7 0.00 0.00 0.00 77 1015.7
20260505223050 58 259 4.3 8.7 0.00 0.00 0.00 77 1015.7
20260505222543 58 292 5.2 8.7 0.00 0.00 0.00 77 1015.7
20260505222038 59 252 4.3 7.8 0.00 0.00 0.00 77 1015.7
20260505221531 59 258 3.5 7.8 0.00 0.00 0.00 77 1015.8
20260505221025 59 263 2.6 7.8 0.00 0.00 0.00 77 1015.8
20260505220519 59 250 3.5 7.8 0.00 0.00 0.00 77 1015.8
20260505220013 58 279 4.3 9.6 0.00 0.00 0.00 77 1015.9
20260505215507 59 244 4.3 8.7 0.00 0.00 0.00 76 1015.8
20260505215001 59 209 3.5 10.4 0.00 0.00 0.00 77 1015.8
20260505214450 59 265 4.3 10.4 0.00 0.00 0.00 77 1015.7
20260505213950 59 220 5.2 10.4 0.00 0.00 0.00 77 1015.9
20260505213450 58 218 6.1 11.3 0.00 0.00 0.00 76 1015.8